Location: Zagreb
(45.8000°N, 16.0000°E)
Time: 19:33:16
(UTC+02:00)

BlueWalker 3 - Pass Details

Date: 01 April 2023
Orbit: 494 x 513 km, 53.2° (Epoch: 02 June)

Event Time Altitude Azimuth Distance (km) Brightness Sun altitude
Rises 20:40:41 0° 259° (W) 2,621 6.6 -13.7°
Reaches altitude 10° 20:42:58 10° 266° (W) 1,733 5.7 -14.1°
Maximum altitude 20:46:43 42° 339° (NNW) 733 3.1 -14.7°
Drops below altitude 10° 20:50:27 10° 52° (NE) 1,725 4.4 -15.3°
Enters shadow 20:50:34 - 52° (NE) 1,769 4.4 -15.3°
